TimePDT,TemperatureF,Dew PointF,Humidity,Sea Level PressureIn,VisibilityMPH,Wind Direction,Wind SpeedMPH,Gust SpeedMPH,PrecipitationIn,Events,Conditions,WindDirDegrees,DateUTC
12:15 AM,44.6,44.6,100,29.79,10.0,NNE,4.6,-,N/A,,Overcast,30,2013-09-25 07:15:00
12:35 AM,44.6,44.6,100,29.79,10.0,Calm,Calm,-,N/A,,Overcast,0,2013-09-25 07:35:00
12:55 AM,44.6,44.6,100,29.79,10.0,Calm,Calm,-,N/A,,Overcast,0,2013-09-25 07:55:00
1:15 AM,44.6,44.6,100,29.80,10.0,Calm,Calm,-,N/A,,Overcast,0,2013-09-25 08:15:00
1:35 AM,44.6,44.6,100,29.80,10.0,Calm,Calm,-,N/A,,Light Drizzle,0,2013-09-25 08:35:00
1:55 AM,44.6,44.6,100,29.79,10.0,Calm,Calm,-,N/A,,Drizzle,0,2013-09-25 08:55:00
2:15 AM,44.6,44.6,100,29.79,10.0,Calm,Calm,-,N/A,Rain,Rain,0,2013-09-25 09:15:00
2:35 AM,44.6,44.6,100,29.79,10.0,Calm,Calm,-,N/A,,Light Drizzle,0,2013-09-25 09:35:00
2:55 AM,44.6,44.6,100,29.79,10.0,NNE,5.8,-,N/A,Rain,Rain,20,2013-09-25 09:55:00
3:15 AM,44.6,44.6,100,29.79,10.0,NNE,5.8,-,N/A,,Light Drizzle,30,2013-09-25 10:15:00
3:35 AM,44.6,44.6,100,29.79,10.0,NNE,4.6,-,N/A,,Overcast,30,2013-09-25 10:35:00
3:55 AM,44.6,44.6,100,29.78,10.0,NE,3.5,-,N/A,,Light Drizzle,50,2013-09-25 10:55:00
4:15 AM,44.6,44.6,100,29.78,10.0,NNE,5.8,-,N/A,,Light Drizzle,30,2013-09-25 11:15:00
4:35 AM,44.6,44.6,100,29.78,10.0,NE,4.6,-,N/A,,Overcast,40,2013-09-25 11:35:00
4:55 AM,44.6,44.6,100,29.78,10.0,NNE,5.8,-,N/A,Rain,Light Rain,30,2013-09-25 11:55:00
5:15 AM,44.6,44.6,100,29.78,10.0,NNE,3.5,-,N/A,,Drizzle,20,2013-09-25 12:15:00
5:35 AM,44.6,44.6,100,29.78,10.0,NNE,4.6,-,N/A,,Drizzle,20,2013-09-25 12:35:00
5:55 AM,44.6,44.6,100,29.78,10.0,NNE,4.6,-,N/A,,Drizzle,30,2013-09-25 12:55:00
6:15 AM,44.6,44.6,100,29.78,10.0,NNE,4.6,-,N/A,,Drizzle,30,2013-09-25 13:15:00
6:35 AM,44.6,44.6,100,29.78,10.0,NNE,4.6,-,N/A,,Drizzle,30,2013-09-25 13:35:00
6:55 AM,44.6,44.6,100,29.78,10.0,NE,3.5,-,N/A,Rain,Rain,40,2013-09-25 13:55:00
7:15 AM,44.6,44.6,100,29.79,10.0,NNE,3.5,-,N/A,Rain,Rain,20,2013-09-25 14:15:00
7:35 AM,44.6,44.6,100,29.79,10.0,NNE,4.6,-,N/A,,Drizzle,30,2013-09-25 14:35:00
7:55 AM,44.6,44.6,100,29.79,10.0,NNE,4.6,-,N/A,,Drizzle,30,2013-09-25 14:55:00
8:15 AM,44.6,44.6,100,29.79,10.0,Calm,Calm,-,N/A,,Drizzle,0,2013-09-25 15:15:00
8:35 AM,44.6,44.6,100,29.79,10.0,Calm,Calm,-,N/A,,Drizzle,0,2013-09-25 15:35:00
8:55 AM,46.4,46.4,100,29.79,10.0,Calm,Calm,-,N/A,,Drizzle,0,2013-09-25 15:55:00
9:15 AM,46.4,46.4,100,29.80,10.0,NNE,4.6,-,N/A,,Drizzle,20,2013-09-25 16:15:00
9:35 AM,46.4,46.4,100,29.80,10.0,NNE,8.1,-,N/A,Rain,Rain,30,2013-09-25 16:35:00
9:55 AM,46.4,46.4,100,29.80,10.0,NNE,6.9,-,N/A,,Light Drizzle,20,2013-09-25 16:55:00
10:15 AM,46.4,46.4,100,29.80,10.0,NNE,8.1,-,N/A,,Light Drizzle,20,2013-09-25 17:15:00
10:35 AM,48.2,48.2,100,29.80,10.0,NNE,11.5,-,N/A,,Drizzle,20,2013-09-25 17:35:00
11:15 AM,48.2,48.2,100,29.80,10.0,NNE,13.8,18.4,N/A,Rain,Rain,20,2013-09-25 18:15:00
11:55 AM,46.4,46.4,100,29.80,10.0,NNE,11.5,-,N/A,Rain,Light Rain,20,2013-09-25 18:55:00
12:15 PM,50.0,44.6,82,29.80,10.0,NNE,16.1,23.0,N/A,Rain,Light Rain,20,2013-09-25 19:15:00
12:35 PM,50.0,44.6,82,29.80,10.0,NNE,17.3,23.0,N/A,,Mostly Cloudy,30,2013-09-25 19:35:00
12:55 PM,50.0,44.6,82,29.80,10.0,NNE,18.4,21.9,N/A,,Scattered Clouds,20,2013-09-25 19:55:00
1:15 PM,51.8,44.6,76,29.80,10.0,NNE,16.1,24.2,N/A,Rain,Light Rain,20,2013-09-25 20:15:00
1:35 PM,51.8,42.8,71,29.80,10.0,NNE,18.4,25.3,N/A,,Scattered Clouds,30,2013-09-25 20:35:00
1:55 PM,50.0,42.8,76,29.81,10.0,NNE,19.6,25.3,N/A,,Scattered Clouds,30,2013-09-25 20:55:00
2:15 PM,51.8,41.0,67,29.81,10.0,NNE,18.4,24.2,N/A,,Overcast,30,2013-09-25 21:15:00
2:35 PM,50.0,42.8,76,29.81,10.0,NNE,18.4,25.3,N/A,Rain,Light Rain,30,2013-09-25 21:35:00
2:55 PM,50.0,42.8,76,29.82,10.0,NNE,16.1,23.0,N/A,,Overcast,30,2013-09-25 21:55:00
3:15 PM,50.0,42.8,76,29.82,10.0,NNE,16.1,21.9,N/A,,Light Drizzle,20,2013-09-25 22:15:00
3:35 PM,51.8,42.8,71,29.83,10.0,NNE,17.3,20.7,N/A,,Mostly Cloudy,30,2013-09-25 22:35:00
3:55 PM,50.0,42.8,76,29.83,10.0,NNE,15.0,21.9,N/A,,Overcast,30,2013-09-25 22:55:00
4:15 PM,50.0,42.8,76,29.83,10.0,NNE,15.0,20.7,N/A,,Overcast,20,2013-09-25 23:15:00
4:35 PM,48.2,42.8,82,29.84,10.0,NNE,13.8,21.9,N/A,,Light Drizzle,20,2013-09-25 23:35:00
4:55 PM,48.2,42.8,82,29.84,10.0,NNE,13.8,18.4,N/A,,Overcast,20,2013-09-25 23:55:00
5:15 PM,48.2,42.8,82,29.85,10.0,NNE,12.7,19.6,N/A,,Light Drizzle,30,2013-09-26 00:15:00
5:35 PM,46.4,42.8,87,29.86,10.0,NNE,13.8,18.4,N/A,,Drizzle,30,2013-09-26 00:35:00
5:55 PM,46.4,44.6,93,29.86,10.0,NE,11.5,-,N/A,Rain,Light Rain,40,2013-09-26 00:55:00
6:15 PM,46.4,44.6,93,29.86,10.0,NNE,13.8,-,N/A,Rain,Light Rain,30,2013-09-26 01:15:00
6:35 PM,46.4,42.8,87,29.86,10.0,NNE,13.8,19.6,N/A,,Overcast,30,2013-09-26 01:35:00
6:55 PM,46.4,42.8,87,29.86,10.0,NNE,11.5,17.3,N/A,,Overcast,30,2013-09-26 01:55:00
7:15 PM,46.4,42.8,87,29.86,10.0,NNE,11.5,-,N/A,,Scattered Clouds,30,2013-09-26 02:15:00
7:35 PM,46.4,42.8,87,29.87,10.0,NNE,9.2,-,N/A,,Clear,30,2013-09-26 02:35:00
7:55 PM,44.6,42.8,93,29.87,10.0,NNE,9.2,-,N/A,,Clear,20,2013-09-26 02:55:00
8:15 PM,44.6,44.6,100,29.87,10.0,NNE,9.2,-,N/A,,Clear,30,2013-09-26 03:15:00
8:35 PM,44.6,42.8,93,29.88,10.0,NNE,11.5,-,N/A,,Clear,30,2013-09-26 03:35:00
8:55 PM,44.6,41.0,87,29.88,10.0,NNE,11.5,18.4,N/A,,Clear,30,2013-09-26 03:55:00
9:15 PM,44.6,41.0,87,29.88,10.0,NNE,13.8,17.3,N/A,,Clear,30,2013-09-26 04:15:00
9:35 PM,44.6,41.0,87,29.88,10.0,NNE,10.4,-,N/A,,Clear,30,2013-09-26 04:35:00
9:55 PM,44.6,41.0,87,29.88,10.0,NNE,10.4,18.4,N/A,,Clear,20,2013-09-26 04:55:00
10:15 PM,44.6,41.0,87,29.89,10.0,NNE,12.7,-,N/A,,Clear,20,2013-09-26 05:15:00
10:35 PM,44.6,41.0,87,29.89,10.0,NNE,13.8,18.4,N/A,,Clear,30,2013-09-26 05:35:00
10:55 PM,44.6,41.0,87,29.89,10.0,NNE,12.7,17.3,N/A,,Clear,20,2013-09-26 05:55:00
11:15 PM,44.6,41.0,87,29.89,10.0,NNE,12.7,-,N/A,,Scattered Clouds,20,2013-09-26 06:15:00
11:35 PM,44.6,41.0,87,29.89,10.0,NNE,13.8,18.4,N/A,,Scattered Clouds,20,2013-09-26 06:35:00
11:55 PM,44.6,41.0,87,29.89,10.0,NNE,11.5,-,N/A,,Clear,20,2013-09-26 06:55:00